This demonstration page uses our WeatherBlox Daily Observations layout. Learn more.

Left ArrowRight Arrow

38.80484, -77.04692

Hourly Observations for August 11, 2021

Temp ( °F °C ) Dew Point ( °F °C ) Humidity (%) Winds ( mph kmh ) Pressure ( in mb ) Visibility ( mi km ) Precip ( " mm )
12:52 am 00:52 Mostly Cloudy 77 25 71 21.7 82 82 SW 5 7 30.09 1019 10 16 N/A
1:52 am 01:52 Mostly Cloudy 77 25 70 21.1 79 79 SSW 8 13 30.06 1018 10 16 N/A
2:52 am 02:52 Mostly Cloudy 75 23.9 70 21.1 84 84 SW 5 7 30.05 1018 10 16 N/A
3:52 am 03:52 Mostly Cloudy 75 23.9 71 21.7 88 88 SSW 6 9 30.05 1018 10 16 N/A
4:52 am 04:52 Mostly Cloudy 75 23.9 70 21.1 84 84 S 6 9 30.05 1018 10 16 N/A
5:52 am 05:52 Partly Cloudy 75 23.9 71 21.7 88 88 S 6 9 30.05 1018 10 16 N/A
6:52 am 06:52 Partly Cloudy 75 23.9 71 21.7 88 88 SSW 8 13 30.05 1018 10 16 N/A
7:52 am 07:52 Partly Cloudy 76 24.4 71 21.7 85 85 SSW 9 15 30.07 1018 10 16 N/A
8:52 am 08:52 Partly Cloudy 79 26.1 72 22.2 79 79 SW 6 9 30.09 1019 10 16 N/A
9:52 am 09:52 Partly Cloudy 81 27.2 73 22.8 77 77 SE 6 9 30.08 1019 10 16 N/A
10:52 am 10:52 Mostly Sunny 84 28.9 74 23.3 72 72 SSE 6 9 30.06 1018 10 16 N/A
11:52 am 11:52 Partly Cloudy 88 31.1 73 22.8 61 61 S 6 9 30.06 1018 10 16 N/A
12:52 pm 12:52 Mostly Sunny 91 32.8 73 22.8 56 56 SSE 6 9 30.05 1018 10 16 N/A
1:52 pm 13:52 Mostly Sunny 94 34.4 73 22.8 51 51 S 8 13 30.03 1017 10 16 N/A
2:52 pm 14:52 Mostly Sunny 94 34.4 74 23.3 52 52 S 13 20 30.00 1016 10 16 N/A
3:52 pm 15:52 Mostly Cloudy 95 35 71 21.7 46 46 S 13 20 29.99 1016 10 16 N/A
4:49 pm 16:49 Mostly Cloudy with Thunderstorms 91 33 73 23 56 56 S 8 13 29.99 1015 10 16 N/A
4:52 pm 16:52 Mostly Cloudy with Thunderstorms 91 32.8 75 23.9 59 59 SSW 7 11 29.99 1016 10 16 N/A
5:15 pm 17:15 Mostly Cloudy with Thunderstorms 86 30 66 18.9 51 51 WNW 10 17 30.01 1016 9 14 N/A
5:40 pm 17:40 Mostly Cloudy with Thunderstorms 81 27.2 70 21.1 69 69 W 14 22 30.04 1017 10 16 0.03 0.76
5:52 pm 17:52 Mostly Cloudy with Thunderstorms 80 26.7 71 21.7 74 74 WSW 13 20 30.04 1017 10 16 0.03 0.76
6:45 pm 18:45 Mostly Cloudy with Light Rain 81 27.2 70 21.1 69 69 NW 9 15 30.02 1017 10 16 0.00 0.00
6:52 pm 18:52 Mostly Cloudy with Light Rain 80 26.7 71 21.7 74 74 NW 7 11 30.02 1017 10 16 0.01 0.25
7:52 pm 19:52 Mostly Cloudy with Light Rain 80 26.7 71 21.7 74 74 NE 3 6 30.03 1017 10 16 0.00 0.00
8:52 pm 20:52 Mostly Cloudy 78 25.6 71 21.7 79 79 S 6 9 30.06 1018 10 16 0.00 0.00
9:52 pm 21:52 Clear 78 25.6 72 22.2 82 82 SSW 5 7 30.08 1019 10 16 N/A
10:52 pm 22:52 Partly Cloudy 77 25 71 21.7 82 82 WSW 5 7 30.08 1019 10 16 N/A
11:52 pm 23:52 Mostly Cloudy 76 24.4 71 21.7 85 85 S 6 9 30.06 1018 10 16 N/A

Powered by AerisWeather